Weather History for Willimantic, CT

Change the Weather History Date:

Saturday, December 15, 2012

  Actual Average Record
Temperature  
Mean Temperature 35 °F -  
Max Temperature 46 °F 39 °F 61 °F (2008)
Min Temperature 24 °F 20 °F -8 °F (1960)
Degree Days  
Heating Degree Days 30    
Moisture  
Dew Point 22 °F    
Average Humidity 68    
Maximum Humidity 88    
Minimum Humidity 37    
Precipitation  
Precipitation 0.00 in - - ()
Sea Level Pressure  
Sea Level Pressure 30.28 in    
Wind  
Wind Speed 1 mph (NNE)    
Max Wind Speed 6 mph    
Max Gust Speed -    
Visibility 9 miles    
Events      
Averages and records for this station are not official NWS values.
T = Trace of Precipitation, MM = Missing Value Source: NWS Daily Summary

Daily Weather History Graph

Daily Weather History Graph

Search for Another Location

Airport:

Trip Planner

Search our weather history database for the weather conditions in past years. The results will help you decide how hot, cold, wet, or windy it might be!

Date:

Astronomy

Dec. 15, 2012 Rise Set
Actual Time 7:09 AM EST 4:19 PM EST
Civil Twilight 6:37 AM EST 4:50 PM EST
Nautical Twilight 6:02 AM EST 5:25 PM EST
Astronomical Twilight 5:28 AM EST 5:59 PM EST
Moon 8:58 AM EST (12/15) 7:21 PM EST (12/15)
Length of Visible Light 10h 12m
Length of Day
9h 09m
Waxing Crescent, 8% of the Moon is Illuminated
Dec 15
Waxing Crescent
Dec 20
First Quarter
Dec 28
Full
Jan 4
Last Quarter
Jan 11
New

Hourly Weather History & Observations

Time (EST) Temp. Windchill Dew Point Humidity Pressure Visibility Wind Dir Wind Speed Gust Speed Precip Events Conditions
12:52 AM 26.1 °F - 21.0 °F 81% 30.21 in 8.0 mi Calm Calm - N/A   Clear
1:52 AM 27.0 °F - 21.9 °F 81% 30.22 in 8.0 mi Calm Calm - N/A   Clear
2:52 AM 25.0 °F - 21.9 °F 88% 30.24 in 8.0 mi Calm Calm - N/A   Clear
3:52 AM 25.0 °F - 19.9 °F 81% 30.24 in 8.0 mi Calm Calm - N/A   Clear
4:52 AM 25.0 °F - 21.9 °F 88% 30.26 in 7.0 mi Calm Calm - N/A   Clear
5:52 AM 24.1 °F - 19.9 °F 84% 30.28 in 7.0 mi Calm Calm - N/A   Clear
6:52 AM 24.1 °F - 19.9 °F 84% 30.29 in 6.0 mi Calm Calm - N/A   Clear
7:52 AM 24.1 °F - 19.0 °F 81% 30.30 in 5.0 mi Calm Calm - N/A   Haze
8:52 AM 28.9 °F - 24.1 °F 82% 30.32 in 6.0 mi Calm Calm - N/A   Haze
9:52 AM 35.1 °F - 28.0 °F 76% 30.32 in 9.0 mi Calm Calm - N/A   Clear
10:52 AM 42.1 °F - 25.0 °F 51% 30.30 in 10.0 mi Calm Calm - N/A   Clear
11:52 AM 44.1 °F - 23.0 °F 43% 30.29 in 10.0 mi Calm Calm - N/A   Clear
12:52 PM 46.0 °F 43.1 °F 23.0 °F 40% 30.27 in 10.0 mi North 5.8 mph - N/A   Clear
1:52 PM 46.0 °F - 21.0 °F 37% 30.26 in 10.0 mi Calm Calm - N/A   Clear
2:52 PM 46.0 °F 44.8 °F 21.0 °F 37% 30.26 in 10.0 mi ENE 3.5 mph - N/A   Clear
3:52 PM 43.0 °F 41.3 °F 21.9 °F 43% 30.26 in 10.0 mi North 3.5 mph - N/A   Clear
4:52 PM 36.0 °F 33.3 °F 23.0 °F 59% 30.27 in 10.0 mi ENE 3.5 mph - N/A   Clear
5:52 PM 32.0 °F 27.5 °F 23.0 °F 69% 30.28 in 10.0 mi NE 4.6 mph - N/A   Clear
6:52 PM 30.9 °F - 23.0 °F 72% 30.29 in 10.0 mi Calm Calm - N/A   Clear
7:52 PM 30.0 °F - 23.0 °F 75% 30.31 in 10.0 mi Calm Calm - N/A   Clear
8:52 PM 32.0 °F - 23.0 °F 69% 30.31 in 10.0 mi Calm Calm - N/A   Clear
9:52 PM 32.0 °F - 23.0 °F 69% 30.31 in 10.0 mi Calm Calm - N/A   Scattered Clouds
10:52 PM 32.0 °F - 24.1 °F 73% 30.31 in 10.0 mi Calm Calm - N/A   Mostly Cloudy
11:52 PM 33.1 °F - 25.0 °F 72% 30.30 in 10.0 mi Calm Calm - N/A   Mostly Cloudy